Location: Unspecified
(0.0000°N, 0.0000°E)
Time: 01:20:06
(UTC+00:00)

KUIPER-P1 - Visible Passes

Search period start: 08 September 2024 00:00
Search period end: 18 September 2024 00:00
Orbit: 319 x 330 km, 30.0° (Epoch: 07 September)

Date Brightness Start Highest point End Pass type
(mag) Time Alt. Az. Time Alt. Az. Time Alt. Az.
13 Sep ? 18:52:22 10° SSW 18:54:31 24° SSE 18:54:31 24° SSE visible
14 Sep ? 19:00:59 10° WSW 19:03:35 90° NW 19:03:40 84° NE visible
15 Sep ? 19:09:18 10° W 19:11:29 24° NNW 19:11:47 24° NNW visible
17 Sep ? 04:56:19 12° NNW 04:58:17 23° NNE 05:00:29 10° E visible
